Home > Weather > Austria > Vienna > Past weeks

Flag for Austria Weather past 2 weeks in Vienna, Vienna, Austria

43 °F

Light rain. Partly cloudy.

Feels Like: 39 °F
Forecast: 35 / 46 °F
Wind: 7 mph from Northeast

Location: Vienna Schwechat-Flughafen Airport

Current Time: Dec 2, 2015 at 1:20:01 AM

Latest Report: Dec 2, 2015 at 12:20 AM

Visibility: N/A

Pressure: 30.30 "Hg

Humidity: 93%

Dew point: 41 °F

Location of ViennaLocation

Historic Weather in Vienna — Graph


Vienna temperature yesterday

Maximum temperature yesterday: 55 °F (at 12:20 AM)
Minimum temperature yesterday: 43 °F (at 11:20 PM)
Average temperature yesterday: 50 °F

Past Weeks' High & Low Weather Summary

High68 °F (Nov 18, 10:50 AM)100% (Nov 20, 4:50 PM)30.33 "Hg (Nov 20, 4:50 PM)
Low23 °F (Nov 24, 5:50 AM)32% (Nov 29, 12:20 PM)29.39 "Hg (Nov 20, 9:20 PM)
Average44 °F71%29.93 "Hg
* Reported Nov 16 11:20 PM — Dec 1 11:50 PM, Vienna, Weather by CustomWeather, © 2015

Note: Actual official high and low records may vary slightly from our data, if they occured in-between our weather recording intervals... More about our weather records


Vienna weather history for previous 24 hours

Time TempWeatherWind HumidityBarometerVisibility
11:50 PM
Tue, Dec 1
43 °FLight rain. Passing clouds.6 mph93%30.30 "HgN/A
11:20 PM43 °FLight rain. Passing clouds.3 mph93%30.30 "HgN/A
10:50 PM45 °FLight rain. Passing clouds.5 mph87%30.30 "HgN/A
10:20 PM45 °FLight rain. Passing clouds.7 mph87%30.27 "HgN/A
9:50 PM45 °FLight rain. Passing clouds.9 mph93%30.27 "HgN/A
9:20 PM45 °FLight rain. Passing clouds.10 mph93%30.27 "HgN/A
8:50 PM46 °FLight rain. Passing clouds.9 mph93%30.27 "Hg6 mi
8:20 PM46 °FLight rain. Partly cloudy.9 mph93%30.24 "HgN/A
7:50 PM46 °FLight rain. Partly cloudy.9 mph93%30.24 "HgN/A
7:20 PM46 °FRain. Passing clouds.9 mph93%30.24 "Hg5 mi
6:50 PM46 °FRain. Partly cloudy.12 mph93%30.21 "Hg6 mi
6:20 PM46 °FRain. Partly cloudy.12 mph100%30.21 "Hg5 mi
5:50 PM46 °FRain. Partly cloudy.10 mph100%30.21 "Hg4 mi
5:20 PM46 °FLight rain. Partly cloudy.10 mph93%30.18 "Hg4 mi
4:50 PM46 °FLight rain. Partly cloudy.12 mph93%30.18 "HgN/A
4:20 PM46 °FLight rain. Partly cloudy.13 mph93%30.18 "HgN/A
3:50 PM46 °FRain. Broken clouds.12 mph93%30.18 "Hg5 mi
3:20 PM46 °FRain. Broken clouds.12 mph100%30.15 "Hg5 mi
2:50 PM48 °FRain showers. Broken clouds.14 mph94%30.15 "Hg5 mi
2:20 PM52 °FSprinkles. Broken clouds.24 mph77%30.15 "HgN/A
1:50 PM54 °FSprinkles. Broken clouds.30 mph67%30.12 "HgN/A
1:20 PM54 °FSprinkles. Broken clouds.30 mph72%30.09 "HgN/A
12:50 PM55 °FScattered showers. Broken clouds.31 mph63%30.09 "HgN/A
12:20 PM55 °FScattered showers. Broken clouds.31 mph63%30.09 "HgN/A
11:50 AM55 °FPartly sunny.32 mph63%30.09 "HgN/A
11:20 AM55 °FPartly sunny.35 mph63%30.07 "HgN/A
10:50 AM54 °FPartly sunny.32 mph67%30.07 "HgN/A
10:20 AM54 °FPartly sunny.32 mph67%30.07 "HgN/A
9:50 AM54 °FPartly sunny.31 mph67%30.04 "HgN/A
8:50 AM54 °FPartly sunny.39 mph63%30.01 "HgN/A
8:20 AM54 °FBroken clouds.36 mph63%30.01 "HgN/A
7:50 AM54 °FBroken clouds.37 mph63%30.01 "HgN/A
7:20 AM54 °FPassing clouds.37 mph63%29.98 "HgN/A
6:50 AM54 °FClear.36 mph63%29.98 "Hg10 mi
5:50 AM52 °FClear.33 mph67%29.98 "Hg10 mi
4:50 AM52 °FSprinkles. Passing clouds.33 mph67%29.95 "HgN/A
4:20 AM54 °FPassing clouds.37 mph58%29.95 "HgN/A
3:50 AM52 °FPassing clouds.35 mph62%29.92 "HgN/A
3:20 AM52 °FSprinkles. Passing clouds.36 mph67%29.92 "HgN/A
2:50 AM54 °FPartly cloudy.33 mph58%29.95 "HgN/A
2:20 AM52 °FSprinkles. Passing clouds.31 mph67%29.95 "HgN/A
1:50 AM54 °FSprinkles. Passing clouds.30 mph58%29.95 "HgN/A
Weather by CustomWeather, © 2015

See weather overviewHow to use our weather pages